Location: Newark
(52.3500°N, 175.9667°E)
Time: 04:27:47
(UTC+00:00)

N. Korean satellite - Visible Passes

Search period start: 15 November 2019 00:00
Search period end: 25 November 2019 00:00
Orbit: 456 x 506 km, 97.2° (Epoch: 14 November)

Date Brightness Start Highest point End Pass type
(mag) Time Alt. Az. Time Alt. Az. Time Alt. Az.
15 Nov 8.9 05:56:18 10° SSW 05:59:28 28° W 06:02:42 10° NNW visible
15 Nov 9.7 17:17:07 10° NE 17:19:44 18° E 17:22:20 10° SE visible
15 Nov 6.9 18:49:47 10° N 18:53:23 48° WNW 18:56:58 10° SW visible
16 Nov 7.6 05:30:25 10° S 05:33:58 52° W 05:37:36 10° NNW visible
16 Nov 6.6 18:24:18 10° NNE 18:28:04 90° W 18:31:46 10° SSW visible
17 Nov 6.6 05:04:55 10° SSE 05:08:34 82° ENE 05:12:16 10° NNW visible
17 Nov 10.3 06:41:33 10° W 06:42:31 11° W 06:43:28 10° WNW visible
17 Nov 7.7 17:59:00 10° NNE 18:02:38 47° E 18:06:13 10° S visible
18 Nov 9.6 06:14:09 10° SW 06:16:50 19° W 06:19:34 10° NW visible
18 Nov 9.0 17:33:56 10° NE 17:37:07 26° E 17:40:15 10° SSE visible
19 Nov 8.5 05:47:54 10° SSW 05:51:16 34° W 05:54:41 10° NNW visible
19 Nov 9.9 17:09:18 10° NE 17:11:30 15° E 17:13:41 10° SE visible
19 Nov 6.7 18:41:35 10° N 18:45:16 58° WNW 18:48:53 10° SSW visible
20 Nov 7.1 05:22:09 10° S 05:25:46 65° WSW 05:29:29 10° NNW visible
20 Nov 6.8 18:16:09 10° NNE 18:19:53 75° ESE 18:23:34 10° S visible
21 Nov 6.6 04:56:45 10° SSE 05:00:23 67° ENE 05:04:06 10° N visible
21 Nov 10.1 06:32:24 10° WSW 06:34:14 13° W 06:36:03 10° WNW visible
21 Nov 8.2 17:50:55 10° NNE 17:54:25 39° E 17:57:52 10° SSE visible
22 Nov 9.3 06:05:36 10° SSW 06:08:35 23° W 06:11:36 10° NW visible
22 Nov 9.3 17:25:56 10° NE 17:28:51 22° E 17:31:45 10° SE visible
22 Nov 7.1 18:58:55 10° N 19:02:24 38° WNW 19:05:48 10° SW visible
23 Nov 8.1 05:39:32 10° S 05:43:01 41° W 05:46:35 10° NNW visible
23 Nov 10.1 17:01:36 10° ENE 17:03:12 12° E 17:04:47 10° ESE visible
23 Nov 6.5 18:33:22 10° N 18:37:04 71° WNW 18:40:42 10° SSW visible
24 Nov 6.8 05:13:52 10° S 05:17:34 79° WSW 05:21:19 10° NNW visible
24 Nov 7.2 18:07:58 10° NNE 18:11:40 60° E 18:15:16 10° S visible
